Time,TemperatureF,DewpointF,PressureIn,WindDirection,WindDirectionDegrees,WindSpeedMPH,WindSpeedGustMPH,Humidity,HourlyPrecipIn,Conditions,Clouds,dailyrainin,SoftwareType,DateUTC
2013-01-29 00:18:00,50.2,49.7,29.91,West,270,8.9,-999.0,98,-99.99,,,0.00,Acu-Link.com,2013-01-29 05:18:00,
2013-01-29 00:40:00,50.7,50.2,29.92,West,270,6.3,-999.0,98,-99.99,,,0.01,Acu-Link.com,2013-01-29 05:40:00,
2013-01-29 01:04:00,50.0,49.5,29.92,WSW,247,5.3,-999.0,98,-99.99,,,0.02,Acu-Link.com,2013-01-29 06:04:00,
2013-01-29 01:22:00,50.0,49.5,29.92,West,270,6.8,-999.0,98,-99.99,,,0.02,Acu-Link.com,2013-01-29 06:22:00,
2013-01-29 01:45:00,50.0,49.5,29.92,West,270,5.3,-999.0,98,-99.99,,,0.02,Acu-Link.com,2013-01-29 06:45:00,
2013-01-29 02:02:00,50.0,49.5,29.93,West,270,5.8,-999.0,98,-99.99,,,0.02,Acu-Link.com,2013-01-29 07:02:00,
2013-01-29 02:18:00,50.0,49.5,29.93,WSW,247,9.9,-999.0,98,-99.99,,,0.03,Acu-Link.com,2013-01-29 07:18:00,
2013-01-29 02:39:00,50.0,49.5,29.93,West,270,7.3,-999.0,98,-99.99,,,0.03,Acu-Link.com,2013-01-29 07:39:00,
2013-01-29 03:03:00,50.0,49.5,29.93,West,270,0.0,-999.0,98,-99.99,,,0.03,Acu-Link.com,2013-01-29 08:03:00,
2013-01-29 03:20:00,49.8,49.3,29.93,WSW,247,6.8,-999.0,98,-99.99,,,0.04,Acu-Link.com,2013-01-29 08:20:00,
2013-01-29 03:38:00,49.6,49.1,29.94,West,270,3.7,-999.0,98,-99.99,,,0.04,Acu-Link.com,2013-01-29 08:38:00,
2013-01-29 03:57:00,49.8,49.3,29.94,SSW,202,5.8,-999.0,98,-99.99,,,0.04,Acu-Link.com,2013-01-29 08:57:00,
2013-01-29 04:16:00,50.0,49.5,29.93,SSW,202,1.1,-999.0,98,-99.99,,,0.04,Acu-Link.com,2013-01-29 09:16:00,
2013-01-29 04:35:00,50.0,49.5,29.94,SSW,202,0.0,-999.0,98,-99.99,,,0.04,Acu-Link.com,2013-01-29 09:35:00,
2013-01-29 04:50:00,50.0,49.5,29.94,SSW,202,0.0,-999.0,98,-99.99,,,0.04,Acu-Link.com,2013-01-29 09:50:00,
2013-01-29 05:09:00,49.6,49.1,29.93,West,270,0.0,-999.0,98,-99.99,,,0.04,Acu-Link.com,2013-01-29 10:09:00,
2013-01-29 05:32:00,49.8,49.3,29.95,WNW,292,0.0,-999.0,98,-99.99,,,0.05,Acu-Link.com,2013-01-29 10:32:00,
2013-01-29 05:53:00,49.8,49.3,29.94,West,270,0.0,-999.0,98,-99.99,,,0.05,Acu-Link.com,2013-01-29 10:53:00,
2013-01-29 06:09:00,49.8,49.3,29.94,NW,315,0.0,-999.0,98,-99.99,,,0.05,Acu-Link.com,2013-01-29 11:09:00,
2013-01-29 06:31:00,49.8,49.3,29.94,ENE,67,0.0,-999.0,98,-99.99,,,0.05,Acu-Link.com,2013-01-29 11:31:00,
2013-01-29 06:47:00,49.5,49.0,29.94,NE,45,0.0,-999.0,98,-99.99,,,0.05,Acu-Link.com,2013-01-29 11:47:00,
2013-01-29 07:04:00,48.6,48.1,29.95,ENE,67,0.0,-999.0,98,-99.99,,,0.05,Acu-Link.com,2013-01-29 12:04:00,
2013-01-29 07:21:00,48.0,47.5,29.95,ESE,112,0.0,-999.0,98,-99.99,,,0.05,Acu-Link.com,2013-01-29 12:21:00,
2013-01-29 07:46:00,46.8,46.3,29.95,East,90,0.0,-999.0,98,-99.99,,,0.06,Acu-Link.com,2013-01-29 12:46:00,
2013-01-29 08:04:00,46.0,45.5,29.95,SE,135,0.0,-999.0,98,-99.99,,,0.06,Acu-Link.com,2013-01-29 13:04:00,
2013-01-29 08:23:00,45.0,44.5,29.95,ESE,112,0.0,-999.0,98,-99.99,,,0.06,Acu-Link.com,2013-01-29 13:23:00,
2013-01-29 08:39:00,45.1,44.6,29.95,North,0,0.0,-999.0,98,-99.99,,,0.06,Acu-Link.com,2013-01-29 13:39:00,
2013-01-29 08:56:00,45.1,44.6,29.95,North,0,0.0,-999.0,98,-99.99,,,0.06,Acu-Link.com,2013-01-29 13:56:00,
2013-01-29 09:13:00,45.3,44.8,29.96,SE,135,0.0,-999.0,98,-99.99,,,0.06,Acu-Link.com,2013-01-29 14:13:00,
2013-01-29 09:32:00,45.3,44.8,29.96,WSW,247,0.0,-999.0,98,-99.99,,,0.06,Acu-Link.com,2013-01-29 14:32:00,
2013-01-29 09:51:00,45.0,44.5,29.95,West,270,0.0,-999.0,98,-99.99,,,0.06,Acu-Link.com,2013-01-29 14:51:00,
2013-01-29 10:06:00,45.1,44.6,29.95,NE,45,0.0,-999.0,98,-99.99,,,0.06,Acu-Link.com,2013-01-29 15:06:00,
2013-01-29 10:21:00,45.3,44.8,29.96,SSW,202,0.0,-999.0,98,-99.99,,,0.06,Acu-Link.com,2013-01-29 15:21:00,
2013-01-29 10:39:00,45.3,44.8,29.95,NNW,337,0.0,-999.0,98,-99.99,,,0.06,Acu-Link.com,2013-01-29 15:39:00,
2013-01-29 10:56:00,45.3,44.8,29.95,ESE,112,0.0,-999.0,98,-99.99,,,0.06,Acu-Link.com,2013-01-29 15:56:00,
2013-01-29 11:30:00,45.3,44.8,29.94,ESE,112,0.0,-999.0,98,-99.99,,,0.07,Acu-Link.com,2013-01-29 16:30:00,
2013-01-29 12:06:00,47.7,47.2,29.92,West,270,0.0,-999.0,98,-99.99,,,0.07,Acu-Link.com,2013-01-29 17:06:00,
2013-01-29 12:26:00,47.7,47.2,29.91,SE,135,5.8,-999.0,98,-99.99,,,0.07,Acu-Link.com,2013-01-29 17:26:00,
2013-01-29 13:00:00,53.1,52.5,29.89,SSW,202,0.0,-999.0,98,-99.99,,,0.07,Acu-Link.com,2013-01-29 18:00:00,
2013-01-29 13:26:00,56.1,55.5,29.88,ESE,112,4.7,-999.0,98,-99.99,,,0.07,Acu-Link.com,2013-01-29 18:26:00,
2013-01-29 13:49:00,56.7,56.1,29.87,ESE,112,4.2,-999.0,98,-99.99,,,0.07,Acu-Link.com,2013-01-29 18:49:00,
2013-01-29 14:05:00,57.7,57.1,29.87,South,180,11.4,-999.0,98,-99.99,,,0.07,Acu-Link.com,2013-01-29 19:05:00,
2013-01-29 14:28:00,58.6,58.0,29.86,South,180,4.2,-999.0,98,-99.99,,,0.07,Acu-Link.com,2013-01-29 19:28:00,
2013-01-29 14:46:00,59.0,58.4,29.85,ESE,112,10.4,-999.0,98,-99.99,,,0.07,Acu-Link.com,2013-01-29 19:46:00,
2013-01-29 15:03:00,60.1,59.5,29.86,SSW,202,6.3,-999.0,98,-99.99,,,0.07,Acu-Link.com,2013-01-29 20:03:00,
2013-01-29 15:25:00,60.3,59.7,29.86,NNE,22,0.0,-999.0,98,-99.99,,,0.07,Acu-Link.com,2013-01-29 20:25:00,
2013-01-29 15:45:00,60.4,59.8,29.85,NE,45,4.2,-999.0,98,-99.99,,,0.07,Acu-Link.com,2013-01-29 20:45:00,
2013-01-29 16:10:00,60.8,60.2,29.84,West,270,0.0,-999.0,98,-99.99,,,0.07,Acu-Link.com,2013-01-29 21:10:00,
2013-01-29 16:26:00,60.6,60.0,29.84,NNE,22,0.0,-999.0,98,-99.99,,,0.07,Acu-Link.com,2013-01-29 21:26:00,
2013-01-29 16:48:00,60.3,59.7,29.84,WNW,292,0.0,-999.0,98,-99.99,,,0.07,Acu-Link.com,2013-01-29 21:48:00,
2013-01-29 17:03:00,58.3,57.7,29.84,SE,135,0.0,-999.0,98,-99.99,,,0.07,Acu-Link.com,2013-01-29 22:03:00,
2013-01-29 17:21:00,58.3,57.7,29.84,NE,45,0.0,-999.0,98,-99.99,,,0.07,Acu-Link.com,2013-01-29 22:21:00,
2013-01-29 17:37:00,55.8,55.2,29.85,NNW,337,0.0,-999.0,98,-99.99,,,0.07,Acu-Link.com,2013-01-29 22:37:00,
2013-01-29 17:52:00,53.6,53.0,29.84,ESE,112,0.0,-999.0,98,-99.99,,,0.07,Acu-Link.com,2013-01-29 22:52:00,
2013-01-29 18:08:00,52.7,52.2,29.84,SSW,202,0.0,-999.0,98,-99.99,,,0.07,Acu-Link.com,2013-01-29 23:08:00,
2013-01-29 18:24:00,51.6,51.1,29.85,SE,135,0.0,-999.0,98,-99.99,,,0.07,Acu-Link.com,2013-01-29 23:24:00,
2013-01-29 18:40:00,51.3,50.8,29.84,NW,315,0.0,-999.0,98,-99.99,,,0.07,Acu-Link.com,2013-01-29 23:40:00,
2013-01-29 19:00:00,50.0,49.5,29.85,West,270,0.0,-999.0,98,-99.99,,,0.07,Acu-Link.com,2013-01-30 00:00:00,
2013-01-29 19:15:00,48.9,48.4,29.84,SW,225,0.0,-999.0,98,-99.99,,,0.07,Acu-Link.com,2013-01-30 00:15:00,
2013-01-29 19:33:00,48.4,47.9,29.84,WSW,247,0.0,-999.0,98,-99.99,,,0.07,Acu-Link.com,2013-01-30 00:33:00,
2013-01-29 20:05:00,46.4,45.9,29.82,NE,45,0.0,-999.0,98,-99.99,,,0.07,Acu-Link.com,2013-01-30 01:05:00,
2013-01-29 20:21:00,45.7,45.2,29.82,SW,225,0.0,-999.0,98,-99.99,,,0.07,Acu-Link.com,2013-01-30 01:21:00,
2013-01-29 20:37:00,45.5,45.0,29.82,NNE,22,0.0,-999.0,98,-99.99,,,0.07,Acu-Link.com,2013-01-30 01:37:00,
2013-01-29 20:55:00,44.8,44.3,29.80,WNW,292,0.0,-999.0,98,-99.99,,,0.07,Acu-Link.com,2013-01-30 01:55:00,
2013-01-29 21:12:00,43.9,43.4,29.80,West,270,0.0,-999.0,98,-99.99,,,0.07,Acu-Link.com,2013-01-30 02:12:00,
2013-01-29 21:27:00,43.3,42.8,29.80,West,270,0.0,-999.0,98,-99.99,,,0.07,Acu-Link.com,2013-01-30 02:27:00,
2013-01-29 21:44:00,42.8,42.3,29.81,NNE,22,0.0,-999.0,98,-99.99,,,0.07,Acu-Link.com,2013-01-30 02:44:00,
2013-01-29 22:06:00,42.8,42.3,29.82,NNW,337,0.0,-999.0,98,-99.99,,,0.07,Acu-Link.com,2013-01-30 03:06:00,
2013-01-29 22:30:00,44.4,43.9,29.81,WSW,247,0.0,-999.0,98,-99.99,,,0.07,Acu-Link.com,2013-01-30 03:30:00,
2013-01-29 22:46:00,42.4,41.9,29.80,ESE,112,0.0,-999.0,98,-99.99,,,0.07,Acu-Link.com,2013-01-30 03:46:00,
2013-01-29 23:02:00,41.4,40.9,29.79,ESE,112,0.0,-999.0,98,-99.99,,,0.07,Acu-Link.com,2013-01-30 04:02:00,
2013-01-29 23:21:00,41.4,40.9,29.79,West,270,0.0,-999.0,98,-99.99,,,0.07,Acu-Link.com,2013-01-30 04:21:00,
2013-01-29 23:41:00,40.3,39.8,29.78,SSE,157,0.0,-999.0,98,-99.99,,,0.07,Acu-Link.com,2013-01-30 04:41:00,
2013-01-29 23:59:00,39.9,39.4,29.77,SSE,157,0.0,-999.0,98,-99.99,,,0.07,Acu-Link.com,2013-01-30 04:59:00,